| time (UTC) | temp F | wind direction | speed MPH | gust MPH | rain 1hr in | rain 24hr in | rain mn in | humidity % | barometer mb |
| 20260507065001 | 48 | 0 | 0.0 | 0.0 | 0.00 | 0.03 | 0.00 | 88 | 1016.7 |
| 20260507063000 | 47 | 0 | 0.0 | 0.0 | 0.00 | 0.05 | 0.00 | 89 | 1016.5 |
| 20260507062000 | 47 | 0 | 0.0 | 0.0 | 0.00 | 0.06 | 0.00 | 90 | 1016.5 |
| 20260507061000 | 46 | 0 | 0.0 | 0.0 | 0.00 | 0.06 | 0.00 | 90 | 1016.4 |
| 20260507054000 | 46 | 0 | 0.0 | 0.0 | 0.00 | 0.08 | 0.00 | 92 | 1016.1 |
| 20260507053001 | 46 | 0 | 0.0 | 0.0 | 0.00 | 0.09 | 0.00 | 91 | 1016.0 |
| 20260507051000 | 45 | 0 | 0.0 | 0.0 | 0.00 | 0.10 | 0.00 | 91 | 1015.9 |
| 20260507050000 | 45 | 0 | 0.0 | 0.0 | 0.00 | 0.11 | 0.00 | 91 | 1015.8 |
| 20260507045001 | 45 | 0 | 0.0 | 0.0 | 0.00 | 0.12 | 0.00 | 91 | 1015.7 |
| 20260507044001 | 45 | 0 | 0.0 | 0.0 | 0.00 | 0.12 | 0.00 | 91 | 1015.6 |
| 20260507043000 | 45 | 0 | 0.0 | 0.0 | 0.00 | 0.13 | 0.00 | 92 | 1015.6 |
| 20260507042001 | 45 | 0 | 0.0 | 0.0 | 0.00 | 0.13 | 0.00 | 92 | 1015.5 |
| 20260507041001 | 45 | 0 | 0.0 | 0.0 | 0.00 | 0.13 | 0.00 | 92 | 1015.4 |
| 20260507040000 | 45 | 0 | 0.0 | 0.0 | 0.00 | 0.15 | 0.00 | 92 | 1015.4 |
| 20260507035001 | 45 | 0 | 0.0 | 0.0 | 0.00 | 0.16 | 0.00 | 92 | 1015.3 |
| 20260507033000 | 45 | 0 | 0.0 | 0.0 | 0.00 | 0.17 | 0.00 | 91 | 1015.2 |
| 20260507032000 | 45 | 0 | 0.0 | 0.0 | 0.00 | 0.17 | 0.00 | 91 | 1015.2 |
| 20260507031001 | 45 | 0 | 0.0 | 0.0 | 0.00 | 0.17 | 0.00 | 90 | 1015.2 |
| 20260507030001 | 45 | 0 | 0.0 | 0.0 | 0.00 | 0.17 | 0.00 | 90 | 1015.1 |
| 20260507025001 | 45 | 0 | 0.0 | 0.0 | 0.00 | 0.17 | 0.00 | 90 | 1015.1 |
| 20260507024001 | 45 | 0 | 0.0 | 0.0 | 0.00 | 0.17 | 0.00 | 90 | 1015.1 |
| 20260507023001 | 46 | 0 | 0.0 | 0.0 | 0.00 | 0.17 | 0.00 | 91 | 1015.1 |
| 20260507022000 | 46 | 0 | 0.0 | 0.0 | 0.00 | 0.18 | 0.00 | 91 | 1015.0 |
| 20260507021001 | 46 | 0 | 0.0 | 0.0 | 0.00 | 0.18 | 0.00 | 91 | 1014.9 |
| 20260507020001 | 45 | 0 | 0.0 | 0.0 | 0.00 | 0.19 | 0.00 | 91 | 1014.8 |
| 20260507015002 | 45 | 0 | 0.0 | 0.0 | 0.00 | 0.19 | 0.00 | 91 | 1014.7 |
| 20260507014001 | 46 | 0 | 0.0 | 0.0 | 0.00 | 0.20 | 0.00 | 91 | 1014.7 |
| 20260507013002 | 46 | 0 | 0.0 | 0.0 | 0.00 | 0.20 | 0.00 | 91 | 1014.7 |
| 20260507012001 | 46 | 0 | 0.0 | 0.0 | 0.00 | 0.20 | 0.00 | 92 | 1014.8 |
| 20260507011001 | 45 | 0 | 0.0 | 0.0 | 0.00 | 0.20 | 0.00 | 92 | 1014.7 |
| 20260507010001 | 45 | 0 | 0.0 | 0.0 | 0.00 | 0.21 | 0.00 | 93 | 1014.6 |
| 20260507005002 | 45 | 0 | 0.0 | 0.0 | 0.00 | 0.21 | 0.00 | 93 | 1014.7 |
| 20260507002001 | 45 | 0 | 0.0 | 0.0 | 0.00 | 0.24 | 0.00 | 93 | 1014.5 |
| 20260507001002 | 45 | 0 | 0.0 | 0.0 | 0.00 | 0.24 | 0.00 | 93 | 1014.5 |
| 20260507000004 | 45 | 0 | 0.0 | 0.0 | 0.00 | 0.25 | 0.00 | 93 | 1014.5 |
| 20260506235003 | 45 | 0 | 0.0 | 0.0 | 0.00 | 0.25 | 0.00 | 92 | 1014.5 |
| 20260506234005 | 45 | 0 | 0.0 | 0.0 | 0.00 | 0.26 | 0.00 | 92 | 1014.5 |
| 20260506233003 | 45 | 0 | 0.0 | 0.0 | 0.00 | 0.27 | 0.00 | 92 | 1014.4 |
| 20260506232003 | 45 | 0 | 0.0 | 0.0 | 0.00 | 0.27 | 0.00 | 91 | 1014.4 |
| 20260506231004 | 44 | 0 | 0.0 | 0.0 | 0.00 | 0.28 | 0.00 | 91 | 1014.3 |
| 20260506230005 | 44 | 0 | 0.0 | 0.0 | 0.00 | 0.28 | 0.00 | 90 | 1014.2 |
| 20260506225004 | 44 | 0 | 0.0 | 0.0 | 0.00 | 0.28 | 0.00 | 90 | 1014.2 |
| 20260506224007 | 44 | 0 | 0.0 | 0.0 | 0.00 | 0.28 | 0.00 | 90 | 1014.1 |
| 20260506223004 | 44 | 0 | 0.0 | 0.0 | 0.00 | 0.29 | 0.00 | 89 | 1014.0 |
| 20260506222004 | 44 | 0 | 0.0 | 0.0 | 0.00 | 0.29 | 0.00 | 88 | 1014.0 |
| 20260506221005 | 44 | 0 | 0.0 | 0.0 | 0.00 | 0.29 | 0.00 | 87 | 1013.9 |
| 20260506220005 | 45 | 0 | 0.0 | 0.0 | 0.00 | 0.30 | 0.29 | 87 | 1013.8 |
| 20260506215006 | 45 | 0 | 0.0 | 0.0 | 0.00 | 0.31 | 0.29 | 86 | 1013.8 |
| 20260506214008 | 45 | 0 | 0.0 | 0.0 | 0.00 | 0.31 | 0.29 | 86 | 1013.7 |
| 20260506213005 | 46 | 0 | 0.0 | 0.0 | 0.00 | 0.31 | 0.29 | 85 | 1013.6 |
| 20260506212006 | 46 | 0 | 0.0 | 0.0 | 0.00 | 0.32 | 0.29 | 85 | 1013.5 |
| 20260506211004 | 46 | 0 | 0.0 | 0.0 | 0.00 | 0.32 | 0.29 | 84 | 1013.5 |
| 20260506210004 | 46 | 0 | 0.0 | 0.0 | 0.00 | 0.33 | 0.29 | 83 | 1013.3 |
| 20260506205005 | 46 | 0 | 0.0 | 0.0 | 0.00 | 0.34 | 0.29 | 82 | 1013.2 |
| 20260506204004 | 47 | 0 | 0.0 | 0.0 | 0.00 | 0.35 | 0.29 | 81 | 1013.1 |
| 20260506203005 | 47 | 0 | 0.0 | 0.0 | 0.00 | 0.35 | 0.29 | 80 | 1012.9 |
| 20260506200005 | 49 | 0 | 0.0 | 0.0 | 0.00 | 0.36 | 0.29 | 79 | 1012.6 |
| 20260506195004 | 50 | 0 | 0.0 | 0.0 | 0.00 | 0.36 | 0.29 | 82 | 1012.5 |
| 20260506194004 | 50 | 0 | 0.0 | 0.0 | 0.00 | 0.36 | 0.29 | 84 | 1012.4 |
| 20260506193005 | 50 | 0 | 0.0 | 0.0 | 0.00 | 0.37 | 0.29 | 85 | 1012.3 |
| 20260506190006 | 50 | 0 | 0.0 | 0.0 | 0.00 | 0.37 | 0.29 | 85 | 1011.9 |
| 20260506185005 | 50 | 0 | 0.0 | 0.0 | 0.00 | 0.39 | 0.29 | 86 | 1011.8 |
| 20260506184004 | 50 | 0 | 0.0 | 0.0 | 0.00 | 0.39 | 0.29 | 85 | 1011.7 |
| 20260506183006 | 50 | 0 | 0.0 | 0.0 | 0.00 | 0.39 | 0.29 | 85 | 1011.6 |
| 20260506180004 | 51 | 0 | 0.0 | 0.0 | 0.00 | 0.40 | 0.29 | 86 | 1011.2 |
| 20260506175003 | 51 | 0 | 0.0 | 0.0 | 0.00 | 0.41 | 0.29 | 87 | 1011.1 |
| 20260506171004 | 51 | 0 | 0.0 | 0.0 | 0.00 | 0.43 | 0.29 | 90 | 1010.8 |
| 20260506170004 | 51 | 0 | 0.0 | 0.0 | 0.00 | 0.43 | 0.29 | 90 | 1010.7 |
| 20260506164004 | 51 | 0 | 0.0 | 0.0 | 0.00 | 0.43 | 0.29 | 89 | 1010.6 |
| 20260506161003 | 51 | 0 | 0.0 | 0.0 | 0.00 | 0.43 | 0.29 | 87 | 1010.7 |
| 20260506160004 | 51 | 0 | 0.0 | 0.0 | 0.00 | 0.43 | 0.29 | 86 | 1010.7 |
| 20260506155004 | 51 | 0 | 0.0 | 0.0 | 0.00 | 0.43 | 0.29 | 86 | 1010.7 |
| 20260506154003 | 51 | 0 | 0.0 | 0.0 | 0.00 | 0.43 | 0.29 | 85 | 1010.7 |
| 20260506153003 | 51 | 0 | 0.0 | 0.0 | 0.00 | 0.43 | 0.29 | 84 | 1010.6 |
| 20260506152003 | 52 | 0 | 0.0 | 0.0 | 0.00 | 0.43 | 0.29 | 84 | 1010.6 |
| 20260506151005 | 52 | 0 | 0.0 | 0.0 | 0.00 | 0.43 | 0.29 | 84 | 1010.6 |
| 20260506150003 | 52 | 0 | 0.0 | 0.0 | 0.00 | 0.43 | 0.29 | 83 | 1010.5 |
| 20260506145005 | 52 | 0 | 0.0 | 0.0 | 0.00 | 0.43 | 0.29 | 85 | 1010.5 |
| 20260506144010 | 51 | 0 | 0.0 | 0.0 | 0.00 | 0.43 | 0.29 | 86 | 1010.5 |
| 20260506143005 | 51 | 0 | 0.0 | 0.0 | 0.00 | 0.43 | 0.29 | 87 | 1010.6 |
| 20260506142005 | 51 | 0 | 0.0 | 0.0 | 0.00 | 0.43 | 0.29 | 87 | 1010.6 |
| 20260506141005 | 51 | 0 | 0.0 | 0.0 | 0.00 | 0.43 | 0.29 | 86 | 1010.6 |
| 20260506135004 | 51 | 0 | 0.0 | 0.0 | 0.00 | 0.43 | 0.29 | 88 | 1010.6 |
| 20260506132003 | 51 | 0 | 0.0 | 0.0 | 0.00 | 0.43 | 0.29 | 84 | 1010.6 |
| 20260506131004 | 51 | 0 | 0.0 | 0.0 | 0.00 | 0.43 | 0.29 | 84 | 1010.5 |
| 20260506130004 | 51 | 0 | 0.0 | 0.0 | 0.00 | 0.43 | 0.29 | 85 | 1010.4 |
| 20260506123003 | 51 | 0 | 0.0 | 0.0 | 0.00 | 0.43 | 0.29 | 84 | 1010.2 |
| 20260506122004 | 51 | 0 | 0.0 | 0.0 | 0.00 | 0.43 | 0.29 | 83 | 1010.1 |
| 20260506121009 | 51 | 0 | 0.0 | 0.0 | 0.00 | 0.43 | 0.29 | 84 | 1010.1 |
| 20260506120004 | 51 | 0 | 0.0 | 0.0 | 0.00 | 0.43 | 0.29 | 86 | 1010.0 |
| 20260506115007 | 51 | 0 | 0.0 | 0.0 | 0.00 | 0.43 | 0.29 | 86 | 1010.1 |
| 20260506113007 | 50 | 0 | 0.0 | 0.0 | 0.01 | 0.43 | 0.29 | 92 | 1010.1 |
| 20260506112008 | 49 | 0 | 0.0 | 0.0 | 0.01 | 0.43 | 0.29 | 93 | 1010.1 |
| 20260506105004 | 47 | 0 | 0.0 | 0.0 | 0.01 | 0.43 | 0.29 | 95 | 1010.3 |
| 20260506104004 | 47 | 0 | 0.0 | 0.0 | 0.01 | 0.43 | 0.29 | 95 | 1010.4 |
| 20260506103004 | 47 | 0 | 0.0 | 0.0 | 0.00 | 0.42 | 0.28 | 95 | 1010.3 |
| 20260506101004 | 47 | 0 | 0.0 | 0.0 | 0.01 | 0.42 | 0.28 | 95 | 1010.2 |
| 20260506100004 | 46 | 0 | 0.0 | 0.0 | 0.01 | 0.42 | 0.28 | 95 | 1010.2 |
| 20260506095007 | 47 | 0 | 0.0 | 0.0 | 0.02 | 0.42 | 0.28 | 95 | 1010.0 |
| 20260506094004 | 47 | 0 | 0.0 | 0.0 | 0.02 | 0.42 | 0.28 | 95 | 1010.0 |
| 20260506093007 | 46 | 0 | 0.0 | 0.0 | 0.02 | 0.42 | 0.28 | 95 | 1010.0 |
| 20260506092004 | 46 | 0 | 0.0 | 0.0 | 0.02 | 0.42 | 0.28 | 95 | 1009.9 |
| 20260506091004 | 46 | 0 | 0.0 | 0.0 | 0.02 | 0.42 | 0.28 | 95 | 1009.8 |
| 20260506090004 | 46 | 0 | 0.0 | 0.0 | 0.02 | 0.41 | 0.28 | 95 | 1009.8 |
| 20260506085005 | 46 | 0 | 0.0 | 0.0 | 0.02 | 0.41 | 0.28 | 96 | 1009.7 |
| 20260506084005 | 46 | 0 | 0.0 | 0.0 | 0.01 | 0.40 | 0.27 | 96 | 1009.6 |
| 20260506083005 | 46 | 0 | 0.0 | 0.0 | 0.01 | 0.41 | 0.27 | 96 | 1009.5 |
| 20260506082004 | 46 | 0 | 0.0 | 0.0 | 0.00 | 0.40 | 0.26 | 96 | 1009.4 |
| 20260506081004 | 46 | 0 | 0.0 | 0.0 | 0.00 | 0.40 | 0.26 | 96 | 1009.4 |
| 20260506073004 | 45 | 0 | 0.0 | 0.0 | 0.01 | 0.40 | 0.26 | 96 | 1009.1 |
| 20260506072005 | 45 | 0 | 0.0 | 0.0 | 0.02 | 0.40 | 0.26 | 96 | 1009.0 |
| 20260506071005 | 45 | 0 | 0.0 | 0.0 | 0.02 | 0.40 | 0.26 | 96 | 1009.0 |